Regional Weather Roundup
Issued by NWS

Home | Current Version | Previous Version | Text Only | Print | Product List | Glossary Off
Versions: 1 2 3 4 5 6 7 8 9 10 11 12 13 14 15 16 17 18 19 20 21 22 23 24 25 26 27 28 29 30 31 32 33 34 35 36 37 38 39 40 41 42 43 44 45 46 47 48 49

000
ASUS45 KBOU 270007
RWRCO

WEATHER ROUNDUP FOR COLORADO
NATIONAL WEATHER SERVICE DENVER/BOULDER CO
500 PM MST MON JAN 26 2015

NOTE: "FAIR" INDICATES FEW OR NO CLOUDS BELOW 12000 FEET WITH NO
SIGNIFICANT WEATHER AND/OR OBSTRUCTIONS TO VISIBILITY.

COZ001>005-013-030-031-270100-
...NORTHWEST COLORADO...

CITY           SKY/WX    TMP DP  RH WIND       PRES   REMARKS
CRAIG          CLEAR     37  26  64 CALM      30.34S
HAYDEN         CLEAR     39  25  56 CALM      30.34S
MEEKER         CLEAR     41  26  55 CALM      30.32F
MOUNT WERNER   NOT AVBL
STEAMBOAT SPGS CLEAR     38  25  60 CALM      30.35S
WALDEN         CLEAR     39  25  56 CALM      30.39R
$$

COZ006>008-011-270100-
...WEST CENTRAL VALLEYS...

CITY           SKY/WX    TMP DP  RH WIND       PRES   REMARKS
GRAND JUNCTION CLEAR     53  26  35 SE9       30.24F
MONTROSE       CLEAR     54  24  31 N3        30.29F
EAGLE          CLEAR     46  27  46 CALM      30.37F
RIFLE          CLEAR     49  26  41 S3        30.27F
DELTA          CLEAR     57  25  28 CALM      30.27S
NUCLA          CLEAR     55  21  26 CALM      30.31R
$$

COZ017>023-064>068-270100-
...SOUTHWEST COLORADO...

CITY           SKY/WX    TMP DP  RH WIND       PRES   REMARKS
DURANGO        CLEAR     50  27  40 W8        30.33R
CORTEZ         CLEAR     50  26  39 CALM      30.31R
PAGOSA SPRINGS CLEAR     54  18  24 CALM      30.35R
TELLURIDE      CLEAR     53  15  22 W6        30.40R
WOLF CREEK PAS NOT AVBL
$$

COZ009-010-012-014-032>034-037-058>063-270100-
...CENTRAL COLORADO...

CITY           SKY/WX    TMP DP  RH WIND       PRES   REMARKS
ASPEN          CLEAR     36  25  64 S5        30.35F
BUENA VISTA    CLEAR     40  24  52 W9        30.36R
COPPER MTN     CLEAR     43   9  24 S8        30.56S
BERTHOUD PASS  FAIR      32  28  86 NW5       30.59S WCI  27
COTTONWOOD PAS CLEAR     52   7  16 SE5       30.45S
GUNNISON       CLEAR     23  16  74 E5        30.46S WCI  17
KREMMLING      CLEAR     30  21  69 CALM      30.43F
LEADVILLE      CLEAR     45  13  27 S5        30.43S
MONARCH PASS   CLEAR     39  10  30 E5        30.66S
SALIDA         CLEAR     50  20  30 SW13      30.41S
SUNLIGHT       CLEAR     41  14  33 CALM      30.50S
WILKERSON PASS CLEAR     41  12  30 SW3       30.55S
$$

COZ069>075-270100-
...SAN LUIS VALLEY/SANGRE DE CRISTO MOUNTAINS...

CITY           SKY/WX    TMP DP  RH WIND       PRES   REMARKS
ALAMOSA        CLEAR     47  22  37 NE6       30.38S
LA VETA PASS   NOT AVBL
SAGUACHE       CLEAR     36  25  64 W3        30.42S
$$

COZ035-036-038>040-270100-
...NORTHERN COLORADO FRONT RANGE...

CITY           SKY/WX    TMP DP  RH WIND       PRES   REMARKS
DENVER INTL AP CLEAR     61  23  23 S7        30.21S
DMNS CITY PARK   N/A     64  17  16 E3        30.20S
AURORA         CLEAR     60  24  25 SE7       30.23S
FRONT RANGE AP NOT AVBL
ERIE MUNI ARPT CLEAR     62  19  19 SE5       30.18S
BOULDER MUN AP CLEAR     66  21  18 S5        30.19R
CENTENNIAL     CLEAR     61  21  21 SE5       30.23S
BROOMFIELD     CLEAR     66  19  16 E6        30.22S
FORT COLLINS   CLEAR     63  27  25 S8        30.19R
LONGMONT       CLEAR     69  20  15 SE5       30.20S
$$

COZ041-046-047-076>085-087-088-270100-
...PIKES PEAK/PALMER DIVIDE AND SOUTHERN FOOTHILLS...

CITY           SKY/WX    TMP DP  RH WIND       PRES   REMARKS
COLO. SPRINGS  CLEAR     59  26  28 S8        30.28S
A. F. ACADEMY  CLEAR     56  23  27 S7        30.28S
ELLICOTT       CLEAR    N/A N/A N/A SW7       30.27S
FALCON         CLEAR     54  23  29 S3        30.32R
FORT CARSON    CLEAR     59  29  31 S6        30.25S
LIMON          CLEAR     54  27  35 N3        30.23R
MONUMENT HILL  CLEAR     50  23  34 SE3       30.30S
TRINIDAD       CLEAR     57  35  43 SE6       30.27F
$$

COZ042>045-048>051-090-091-270100-
...NORTHEAST COLORADO...

CITY           SKY/WX    TMP DP  RH WIND       PRES   REMARKS
GREELEY ARPT   CLEAR     64  27  24 S6        30.15S
AKRON          CLEAR     53  31  42 SW8       30.16F
BURLINGTON     CLEAR     59  33  37 CALM      30.17R
WRAY           CLEAR     59  31  34 W5        30.13S
STERLING       CLEAR     64  32  29 N5        30.12S
HOLYOKE        CLEAR     59  32  36 CALM      30.12S
FORT MORGAN    CLEAR     58  31  35 SE3       30.16S
$$

COZ086-089-092>099-270100-
...SOUTHEAST COLORADO...

CITY           SKY/WX    TMP DP  RH WIND       PRES   REMARKS
PUEBLO         CLEAR     66  25  21 CALM      30.20S
LA JUNTA       CLEAR     60  35  39 S8        30.19S
LAMAR          CLEAR     59  33  37 MISG      30.16S
SPRINGFIELD      N/A     57  30  35 NW7       30.21S
$$



USA.gov is the U.S. government's official web portal to all federal, state and local government web resources and services.